2000 DK8  

Epoch 2000 Feb. 26.0 TT = JDT 2451600.5                 Nakano

M  13.43816              (2000.0)            P               Q

n   0.23865157     Peri.  340.81848     +0.10416399     -0.97106572

a   2.5741065      Node   102.74864     +0.93886654     +0.02471673

e   0.6937924      Incl.   12.72841     +0.32814552     +0.23752989

P   4.13           H   18.5           G   0.15           U   *

Residuals in seconds of arc 

000226 704  0.2+  1.1+    000227 046  0.4+  0.2-    000229 118  1.3-  0.6-  

000226 704  0.4+  1.3+    000227 118  0.4-  0.4-    000229 118  0.2-  0.9+  

000226 704  0.6+  0.5+    000227 118  0.5+  0.4-    000229 118  0.6+  0.1+  

000226 704  0.5+  0.9+    000227 118  0.2+  0.7-    000229 704  1.1+  0.2-  

000226 704  0.6+  0.7+    000227 651  0.3-  0.5+    000229 704  0.6+  0.1-  

000227 611  0.0   0.5+    000227 651  0.4-  0.3+    000229 704  0.5+  0.4-  

000227 611  0.1-  0.3+    000227 651  0.4-  0.4+    000301 402  0.2+  0.1-  

000227 611  1.9-  0.6+    000227 858  0.6+  0.5-    000301 402  0.9+  0.7+  

000227 046  0.0   0.2-    000227 858  0.2+  0.4-    000301 402  0.2+  0.9+  

000227 611  0.0   0.5-    000227 858  0.4+  0.5-    000301 402  0.2+  0.1-  

000227 611  0.3+  0.7-    000228 118  0.4+  0.6-    000302 670  0.5-  1.3+  

000227 557  1.7-  0.2-    000228 118  1.0+  0.1-    000302 670  0.2-  0.5-  

000227 046  0.2-  0.3-    000228 118  0.5+  0.1-    000302 344  0.1-  0.3+  

000227 046  0.1+  0.2-    000228 344  1.3-  0.5-    000302 344  0.3-  0.2+  

000227 046  0.6+  0.2-    000228 344  1.0-  0.2-    000302 344  0.1+  0.1+  

000227 557  0.6-  0.5-    000228 344  1.1-  0.4-    000306 360  0.3-  0.3-  

000227 046  0.3+  0.1-    000228 557  0.3+  0.2-    000306 360  0.2-  0.1+  

000227 557  0.6-  0.2-    000228 557  0.7+  0.7-    000306 360  0.3+  0.1-  



NAKANO

         **** Don't distribute anyone except personal use only ****

                (C) Copyright 2000 OAA/ComputingSection

write mail from CFAD0::NAKANO on 2000-03-08 04:10:59(JST).

 





–ß‚è‚Ü‚·B